Fort Bragg, NC

12:42 AM EST on November 19, 2017 (GMT -0500)
Simmons Army Air Field

Weather History for KFBG - December, 2012

Change the Weather History Date:

Tuesday, December 11, 2012

  Actual Average Record
Temperature  
Mean Temperature 60 °F -  
Max Temperature 68 °F 54 °F 79 °F (2007)
Min Temperature 52 °F 36 °F 22 °F (2016)
Degree Days  
Heating Degree Days 4    
Growing Degree Days 10 (Base 50)    
Moisture  
Dew Point 50 °F    
Average Humidity 69    
Maximum Humidity 99    
Minimum Humidity 48    
Precipitation  
Precipitation 0.00 in - - ()
Sea Level Pressure  
Sea Level Pressure 29.93 in    
Wind  
Wind Speed 6 mph (WNW)    
Max Wind Speed 12 mph    
Max Gust Speed -    
Visibility 10 miles    
Events      
Averages and records for this station are not official NWS values.
T = Trace of Precipitation, MM = Missing Value Source: NWS Daily Summary

Daily Weather History Graph

Daily Weather History Graph

Search for Another Location

Airport or City:

Trip Planner

Search our weather history database for the weather conditions in past years. The results will help you decide how hot, cold, wet, or windy it might be!

Date:

Astronomy

Dec. 11, 2012 Rise Set
Actual Time 7:14 AM EST 5:04 PM EST
Civil Twilight 6:46 AM EST 5:32 PM EST
Nautical Twilight 6:14 AM EST 6:04 PM EST
Astronomical Twilight 5:43 AM EST 6:34 PM EST
Moon 5:09 AM EST (12/11) 3:40 PM EST (12/11)
Length of Visible Light 10h 46m
Length of Day
9h 49m
Waning Crescent, 4% of the Moon is Illuminated
Dec 11
Waning Crescent
Dec 13
New
Dec 20
First Quarter
Dec 28
Full
Jan 4
Last Quarter

Hourly Weather History & Observations

Time (EST) Temp. Dew Point Humidity Pressure Visibility Wind Dir Wind Speed Gust Speed Precip Events Conditions
12:55 AM 63.9 °F 58.6 °F 83% 29.75 in 10.0 mi SW 5.8 mph - N/A   Mostly Cloudy
1:55 AM 64.2 °F 58.5 °F 82% 29.76 in 10.0 mi South 5.8 mph - N/A   Overcast
2:55 AM 63.9 °F 58.1 °F 81% 29.77 in 10.0 mi SW 6.9 mph - N/A   Mostly Cloudy
3:55 AM 63.9 °F 58.1 °F 81% 29.79 in 10.0 mi SSW 5.8 mph - N/A   Mostly Cloudy
4:55 AM 61.5 °F 57.7 °F 87% 29.79 in 10.0 mi WSW 5.8 mph - N/A   Clear
5:55 AM 58.8 °F 57.0 °F 94% 29.80 in 10.0 mi WSW 4.6 mph - N/A   Clear
6:55 AM 59.0 °F 58.3 °F 97% 29.83 in 10.0 mi SW 3.5 mph - N/A   Clear
7:55 AM 58.6 °F 58.5 °F 99% 29.86 in 10.0 mi WSW 3.5 mph - N/A   Clear
8:55 AM 62.2 °F 57.9 °F 86% 29.89 in 10.0 mi WSW 9.2 mph - N/A   Clear
9:55 AM 68.2 °F 52.9 °F 58% 29.91 in 10.0 mi WSW 11.5 mph - N/A   Scattered Clouds
10:55 AM 66.9 °F 52.3 °F 59% 29.94 in 10.0 mi WSW 8.1 mph - N/A   Mostly Cloudy
11:55 AM 67.5 °F 53.2 °F 60% 29.93 in 10.0 mi WSW 3.5 mph - N/A   Partly Cloudy
12:55 PM 68.7 °F 53.4 °F 58% 29.91 in 10.0 mi Variable 6.9 mph - N/A   Partly Cloudy
1:55 PM 68.0 °F 55.4 °F 64% 29.92 in 10.0 mi South 4.6 mph - N/A   Partly Cloudy
2:55 PM 65.1 °F 49.3 °F 56% 29.94 in 10.0 mi NNW 6.9 mph - N/A   Mostly Cloudy
3:55 PM 63.1 °F 45.5 °F 53% 29.96 in 10.0 mi Variable 5.8 mph - N/A   Mostly Cloudy
4:55 PM 61.0 °F 44.4 °F 54% 29.98 in 10.0 mi North 6.9 mph - N/A   Scattered Clouds
5:55 PM 58.1 °F 38.7 °F 48% 30.01 in 10.0 mi North 9.2 mph - N/A   Partly Cloudy
6:55 PM 56.8 °F 38.1 °F 50% 30.04 in 10.0 mi North 8.1 mph - N/A   Scattered Clouds
7:55 PM 55.9 °F 38.5 °F 52% 30.06 in 10.0 mi NNW 6.9 mph - N/A   Scattered Clouds
8:55 PM 55.0 °F 38.8 °F 54% 30.06 in 10.0 mi North 6.9 mph - N/A   Scattered Clouds
9:55 PM 54.5 °F 41.0 °F 60% 30.09 in 10.0 mi North 4.6 mph - N/A   Mostly Cloudy
10:47 PM 53.6 °F 42.8 °F 67% 30.11 in 10.0 mi NNE 5.8 mph - N/A   Overcast
10:55 PM 54.1 °F 43.2 °F 66% 30.11 in 10.0 mi NNE 6.9 mph - N/A   Overcast
11:55 PM 52.9 °F 42.1 °F 67% 30.11 in 10.0 mi NNE 10.4 mph - N/A   Overcast